Starlink 33642

operational
NORAD ID: 63978 Int'l Des: 2025-099 Owner: SPXS Country: US Constellation: starlink
LEOCIRCULAR

About Starlink 33642

Description loading...

Live Position

Loading 3D Globe...

Upcoming Passes

Altitude History

Altitude vs Time

uPlot chart will show altitude changes over time

Two-Line Element Set

1 63978U 25099AC 26101.68774539 .00010384 00000-0 38619-3 0 9993
2 63978 42.9959 346.3314 0000470 284.5226 75.5573 15.27593491 52338
Epoch: Apr 11, 2026 • Age: 24 hours

Current Status

Altitude 482.6 km
Velocity 7.63 km/s
Sub-Earth Point 0.15°N, 100.61°W
Launch Date May 13, 2025
Age 0.9 years
Type internet

Technical Details

Classification Payload
Mass 575.00 kg
Dry Mass 530.00 kg
Total Mass 575.00 kg
Length 0.30 m
Diameter 4.10 m
Span 29.00 m
Shape Box + pan
Manufacturer SPXS
Bus Type Starlink V2MO
Phase Status In Orbit
Owner/State SPXS/US

Large Constellations

Loading constellations...